Temp
-13 -13 -13 -13 -13 -13 -13 -13 -13 -13 -13 -13 -12 -12 -12 -12 -12 -12 -12 -12 -12 -12 -12 -12 -12 -12 -12 -12 -12 -12 -12 -12 -12 -12 -12 -12 -12 -12 -12 -12 -11 -11 -11 -11 -11 -11 -10 -10 -10 -10 -10 -10 -10 -10 -10 -10 -11 -11 -11 -11 -11 -11 -11
-13 -14 -14 -14 -14 -13 -13 -13 -13 -13 -13 -13 -13 -13 -12 -12 -12 -12 -12 -12 -12 -12 -12 -12 -12 -12 -12 -12 -12 -12 -12 -12 -12 -12 -12 -12 -12 -12 -12 -12 -12 -11 -11 -11 -11 -11 -11 -11 -10 -10 -10 -10 -10 -10 -10 -11 -11 -11 -11 -11 -11 -11 -11
-13 -14 -14 -14 -14 -14 -14 -13 -13 -13 -13 -13 -13 -13 -13 -13 -13 -12 -12 -12 -12 -12 -12 -12 -12 -12 -12 -12 -12 -12 -12 -12 -12 -12 -12 -12 -12 -12 -12 -12 -12 -11 -11 -11 -11 -11 -11 -11 -11 -11 -10 -11 -10 -10 -11 -11 -11 -11 -11 -11 -11 -11 -11
-13 -14 -14 -14 -14 -14 -14 -14 -14 -13 -13 -13 -13 -13 -13 -13 -13 -13 -12 -12 -12 -12 -12 -12 -12 -12 -12 -12 -12 -12 -12 -12 -12 -12 -12 -12 -12 -12 -12 -12 -12 -12 -11 -11 -11 -11 -11 -11 -11 -11 -11 -11 -11 -11 -11 -11 -11 -11 -11 -11 -11 -11 -11
-14 -14 -14 -14 -14 -14 -14 -14 -14 -14 -13 -13 -13 -13 -13 -13 -13 -13 -13 -13 -12 -12 -12 -12 -12 -12 -12 -12 -12 -12 -12 -12 -12 -12 -12 -12 -12 -12 -12 -12 -12 -12 -12 -11 -11 -11 -11 -11 -11 -11 -11 -11 -11 -11 -11 -11 -11 -11 -11 -11 -11 -11 -11
-14 -14 -14 -14 -14 -14 -14 -14 -14 -14 -14 -13 -13 -13 -13 -13 -13 -13 -13 -13 -13 -12 -12 -12 -12 -12 -12 -12 -12 -12 -12 -12 -12 -12 -12 -12 -12 -12 -12 -12 -12 -12 -12 -12 -12 -12 -12 -11 -11 -11 -11 -11 -11 -11 -11 -11 -11 -11 -11 -11 -11 -11 -11
-14 -14 -14 -14 -14 -14 -14 -14 -14 -14 -14 -14 -13 -13 -13 -13 -13 -13 -13 -13 -13 -13 -12 -12 -12 -12 -12 -12 -12 -12 -12 -12 -12 -12 -12 -12 -12 -12 -12 -12 -12 -12 -12 -12 -12 -12 -12 -12 -11 -11 -11 -11 -11 -11 -12 -11 -11 -11 -11 -11 -11 -11 -11
-14 -14 -14 -14 -14 -14 -14 -14 -14 -14 -14 -14 -14 -13 -13 -13 -13 -13 -13 -13 -13 -13 -13 -12 -12 -12 -12 -12 -12 -12 -12 -12 -12 -12 -12 -12 -12 -12 -12 -12 -12 -12 -12 -12 -12 -12 -12 -12 -12 -11 -11 -11 -11 -12 -12 -12 -11 -11 -11 -11 -11 -11 -11
-15 -14 -14 -14 -14 -14 -14 -14 -14 -14 -14 -14 -14 -14 -13 -13 -13 -13 -13 -13 -13 -13 -13 -13 -13 -12 -12 -12 -12 -12 -12 -12 -12 -12 -12 -12 -12 -12 -12 -12 -12 -12 -12 -12 -12 -12 -12 -12 -12 -12 -12 -12 -12 -12 -12 -12 -12 -11 -11 -11 -11 -11 -12
-15 -15 -14 -14 -14 -14 -14 -14 -14 -14 -14 -14 -14 -14 -14 -13 -13 -13 -13 -13 -13 -13 -13 -13 -13 -13 -12 -12 -12 -12 -12 -12 -12 -12 -12 -12 -12 -12 -12 -12 -12 -12 -12 -11 -11 -12 -12 -12 -12 -12 -12 -12 -12 -12 -12 -12 -12 -11 -11 -11 -11 -12 -12
-16 -15 -15 -15 -14 -14 -14 -14 -14 -14 -14 -14 -14 -14 -14 -14 -14 -13 -13 -13 -13 -13 -13 -13 -13 -13 -13 -13 -13 -12 -12 -12 -12 -12 -12 -12 -12 -12 -12 -12 -12 -12 -12 -12 -12 -12 -12 -12 -12 -12 -12 -12 -12 -12 -12 -12 -12 -12 -12 -12 -12 -12 -12
-16 -15 -15 -15 -15 -15 -15 -15 -14 -14 -14 -14 -14 -14 -14 -14 -14 -14 -13 -13 -13 -13 -13 -13 -13 -13 -13 -13 -13 -13 -13 -12 -12 -13 -12 -12 -12 -12 -12 -12 -12 -12 -12 -12 -12 -12 -12 -12 -12 -12 -12 -12 -12 -12 -12 -12 -12 -12 -12 -12 -12 -12 -13
-16 -16 -15 -15 -15 -15 -15 -15 -15 -15 -14 -14 -14 -14 -14 -14 -14 -14 -14 -14 -13 -13 -13 -13 -13 -13 -13 -13 -13 -13 -13 -13 -13 -13 -12 -12 -12 -12 -12 -12 -12 -12 -12 -12 -12 -12 -12 -12 -12 -12 -12 -12 -12 -12 -12 -12 -12 -12 -12 -12 -12 -12 -13
-16 -16 -16 -15 -15 -15 -15 -15 -15 -15 -15 -14 -14 -14 -14 -14 -14 -14 -14 -14 -14 -14 -13 -13 -13 -13 -13 -13 -13 -13 -13 -13 -13 -13 -12 -12 -12 -12 -12 -12 -12 -12 -12 -12 -11 -11 -12 -12 -12 -12 -12 -12 -12 -12 -12 -12 -12 -12 -12 -12 -12 -12 -12
-16 -16 -16 -15 -15 -15 -15 -15 -15 -15 -15 -15 -15 -14 -14 -14 -14 -14 -14 -14 -14 -14 -14 -14 -14 -14 -14 -14 -13 -13 -13 -13 -13 -13 -13 -12 -12 -12 -12 -12 -12 -12 -12 -12 -11 -12 -12 -12 -12 -12 -12 -12 -12 -12 -12 -12 -12 -12 -12 -12 -12 -12 -12
-16 -16 -16 -16 -15 -15 -15 -15 -15 -15 -15 -15 -15 -15 -14 -14 -14 -14 -14 -14 -14 -14 -14 -14 -14 -14 -14 -14 -14 -14 -13 -13 -13 -13 -13 -13 -12 -12 -12 -12 -12 -12 -12 -12 -12 -12 -12 -12 -12 -12 -12 -12 -12 -12 -12 -12 -12 -12 -13 -13 -12 -12 -12
-16 -16 -16 -16 -16 -15 -15 -15 -15 -15 -15 -15 -15 -15 -15 -15 -14 -14 -14 -14 -14 -14 -14 -14 -14 -14 -14 -14 -14 -14 -13 -13 -13 -13 -13 -13 -13 -12 -12 -12 -12 -12 -12 -12 -12 -12 -12 -12 -12 -12 -12 -12 -12 -12 -12 -12 -12 -13 -13 -13 -13 -13 -13
-16 -16 -16 -16 -16 -15 -15 -15 -15 -16 -16 -15 -15 -15 -15 -15 -15 -15 -15 -15 -14 -14 -14 -14 -14 -14 -14 -14 -14 -14 -13 -13 -13 -13 -13 -13 -13 -12 -12 -12 -12 -12 -12 -12 -12 -13 -12 -12 -12 -12 -12 -12 -12 -12 -12 -12 -12 -12 -13 -13 -13 -13 -13
-16 -16 -16 -16 -16 -15 -15 -16 -16 -16 -16 -16 -16 -16 -15 -15 -15 -15 -15 -15 -15 -15 -14 -14 -14 -14 -14 -14 -14 -14 -13 -13 -13 -13 -13 -13 -13 -13 -12 -12 -12 -12 -12 -12 -13 -13 -13 -13 -12 -12 -12 -12 -12 -12 -12 -12 -12 -12 -12 -12 -12 -12 -13
-17 -16 -16 -16 -16 -15 -15 -16 -16 -16 -16 -16 -16 -16 -16 -15 -15 -15 -15 -15 -15 -15 -15 -14 -14 -14 -14 -14 -14 -14 -14 -13 -13 -13 -13 -13 -13 -13 -13 -12 -13 -13 -12 -12 -12 -13 -13 -13 -13 -12 -12 -12 -12 -12 -12 -12 -13 -13 -13 -12 -12 -12 -12
-17 -16 -16 -16 -16 -16 -16 -16 -16 -16 -16 -16 -16 -16 -16 -16 -16 -15 -15 -15 -15 -15 -15 -15 -14 -14 -14 -14 -14 -14 -14 -14 -14 -13 -13 -13 -13 -13 -13 -13 -13 -13 -13 -12 -12 -12 -12 -13 -13 -12 -12 -12 -12 -12 -12 -13 -13 -13 -13 -12 -12 -12 -12
-17 -17 -16 -16 -16 -16 -16 -16 -16 -16 -16 -16 -16 -16 -16 -16 -16 -15 -15 -15 -15 -15 -15 -15 -15 -15 -14 -14 -14 -14 -14 -14 -14 -14 -14 -14 -13 -13 -13 -13 -13 -13 -13 -13 -12 -12 -12 -12 -12 -12 -12 -12 -12 -12 -12 -13 -13 -13 -13 -13 -13 -13 -13
-17 -17 -16 -16 -16 -16 -16 -16 -16 -16 -16 -16 -16 -16 -16 -16 -16 -15 -15 -15 -15 -15 -15 -15 -15 -15 -15 -15 -15 -15 -14 -14 -14 -14 -14 -14 -14 -13 -13 -13 -13 -13 -13 -13 -12 -12 -12 -12 -12 -12 -12 -12 -12 -12 -12 -12 -13 -13 -13 -13 -13 -13 -13
-17 -17 -17 -16 -16 -16 -16 -16 -16 -16 -16 -16 -16 -16 -16 -16 -15 -15 -15 -15 -15 -15 -15 -15 -15 -15 -15 -15 -15 -15 -15 -15 -14 -14 -14 -14 -14 -14 -14 -13 -13 -13 -13 -13 -13 -12 -12 -12 -12 -12 -12 -12 -12 -12 -12 -12 -13 -13 -13 -13 -13 -13 -13
-17 -17 -17 -16 -16 -16 -16 -16 -16 -16 -16 -16 -16 -16 -16 -16 -16 -15 -15 -15 -15 -15 -15 -15 -15 -15 -15 -15 -15 -15 -15 -15 -15 -14 -14 -14 -14 -14 -14 -14 -14 -13 -13 -13 -13 -13 -12 -12 -12 -12 -12 -12 -12 -12 -12 -12 -12 -12 -12 -13 -13 -13 -13
-17 -17 -16 -16 -16 -16 -16 -16 -16 -16 -16 -16 -16 -16 -16 -16 -16 -16 -16 -16 -15 -15 -15 -15 -15 -15 -15 -15 -15 -15 -15 -15 -15 -15 -15 -15 -14 -14 -14 -14 -14 -14 -13 -13 -13 -13 -13 -12 -12 -12 -12 -12 -12 -12 -12 -12 -12 -12 -12 -13 -12 -12 -12
-16 -16 -16 -16 -16 -16 -16 -16 -16 -16 -16 -16 -16 -16 -16 -16 -16 -16 -16 -16 -16 -16 -16 -16 -16 -15 -15 -15 -15 -15 -15 -15 -15 -15 -15 -15 -15 -15 -14 -14 -14 -14 -14 -13 -13 -13 -13 -13 -12 -12 -12 -12 -12 -12 -12 -12 -12 -12 -12 -13 -13 -13 -13
-16 -16 -16 -16 -16 -16 -16 -16 -16 -16 -16 -16 -16 -16 -16 -16 -16 -16 -16 -16 -16 -16 -16 -16 -16 -16 -16 -15 -15 -15 -15 -15 -15 -15 -15 -15 -15 -15 -15 -15 -14 -14 -14 -13 -13 -13 -13 -13 -12 -12 -12 -12 -12 -12 -12 -12 -12 -12 -12 -12 -13 -13 -13
-16 -16 -17 -17 -16 -16 -16 -16 -16 -16 -16 -16 -16 -16 -16 -16 -16 -16 -16 -16 -16 -16 -16 -16 -16 -16 -16 -16 -16 -15 -15 -15 -15 -15 -15 -15 -15 -15 -15 -15 -15 -14 -14 -14 -14 -13 -13 -13 -13 -12 -12 -12 -12 -12 -12 -12 -12 -12 -12 -12 -12 -13 -13
-17 -17 -17 -17 -17 -17 -16 -16 -16 -16 -16 -16 -16 -16 -16 -17 -17 -17 -17 -16 -16 -16 -16 -16 -16 -16 -16 -16 -16 -16 -15 -15 -15 -15 -15 -15 -15 -15 -15 -15 -15 -15 -14 -14 -14 -14 -13 -13 -13 -12 -12 -12 -12 -12 -12 -12 -12 -12 -12 -12 -12 -12 -13
-17 -17 -17 -17 -17 -17 -17 -16 -16 -16 -16 -16 -16 -17 -17 -17 -17 -17 -17 -17 -17 -16 -16 -16 -16 -16 -16 -16 -16 -16 -16 -16 -15 -15 -15 -15 -15 -15 -15 -15 -15 -15 -15 -14 -14 -14 -14 -13 -13 -13 -12 -12 -12 -12 -12 -12 -12 -12 -13 -12 -12 -12 -13
-17 -17 -17 -17 -17 -17 -17 -17 -17 -16 -16 -17 -17 -17 -17 -17 -17 -17 -17 -17 -17 -17 -17 -17 -16 -16 -16 -16 -16 -16 -16 -16 -16 -15 -15 -15 -15 -15 -15 -15 -15 -15 -15 -15 -15 -14 -14 -14 -13 -13 -13 -12 -13 -12 -12 -12 -12 -12 -13 -13 -12 -12 -13
-18 -18 -18 -17 -18 -18 -18 -17 -17 -17 -17 -17 -17 -17 -17 -17 -17 -17 -17 -17 -17 -17 -17 -17 -17 -17 -17 -17 -17 -16 -16 -16 -16 -16 -15 -15 -15 -15 -15 -15 -15 -15 -15 -15 -15 -15 -14 -14 -14 -13 -13 -13 -13 -13 -12 -12 -12 -12 -13 -13 -13 -12 -12
-18 -18 -18 -18 -18 -18 -18 -18 -17 -17 -17 -17 -17 -18 -18 -18 -18 -18 -17 -17 -17 -17 -17 -17 -17 -17 -17 -17 -17 -17 -17 -16 -16 -16 -16 -15 -15 -15 -15 -15 -15 -15 -15 -15 -15 -15 -15 -14 -14 -13 -13 -13 -12 -13 -13 -12 -12 -13 -13 -13 -13 -12 -13
-18 -18 -18 -18 -18 -18 -18 -18 -18 -18 -17 -17 -18 -18 -18 -18 -18 -18 -18 -17 -18 -18 -17 -17 -17 -17 -17 -17 -17 -17 -17 -17 -16 -16 -16 -16 -15 -15 -15 -15 -15 -15 -15 -15 -15 -15 -15 -15 -14 -14 -13 -13 -12 -13 -13 -13 -13 -13 -12 -13 -13 -13 -13
-18 -18 -18 -18 -18 -18 -18 -18 -18 -18 -18 -18 -18 -18 -18 -18 -18 -18 -18 -18 -18 -18 -18 -18 -18 -18 -18 -18 -18 -18 -17 -17 -17 -17 -16 -16 -16 -15 -15 -15 -15 -15 -15 -15 -15 -15 -15 -15 -14 -14 -14 -13 -13 -13 -13 -13 -13 -13 -13 -13 -13 -13 -13
-18 -18 -18 -18 -18 -18 -18 -18 -18 -18 -18 -18 -18 -18 -18 -18 -18 -18 -18 -18 -18 -18 -18 -18 -18 -18 -18 -18 -18 -18 -18 -18 -17 -17 -17 -16 -16 -16 -16 -15 -15 -15 -15 -15 -15 -15 -15 -15 -14 -14 -14 -14 -14 -14 -14 -13 -13 -13 -13 -13 -13 -13 -13
Height
5818 5818 5819 5820 5821 5821 5822 5823 5823 5824 5825 5825 5826 5826 5827 5827 5828 5828 5829 5830 5831 5831 5831 5832 5832 5833 5834 5835 5836 5836 5837 5837 5838 5839 5841 5842 5842 5843 5845 5845 5846 5847 5848 5848 5849 5849 5849 5849 5850 5850 5851 5852 5853 5854 5855 5855 5855 5855 5854 5853 5854 5854 5854
5815 5815 5816 5817 5818 5819 5819 5820 5821 5821 5822 5823 5823 5823 5824 5825 5825 5826 5827 5828 5829 5829 5830 5830 5831 5831 5832 5833 5833 5834 5834 5835 5836 5837 5838 5839 5839 5841 5842 5843 5844 5845 5846 5846 5847 5847 5848 5848 5848 5848 5849 5850 5851 5852 5853 5853 5853 5853 5852 5851 5852 5852 5852
5812 5813 5813 5814 5815 5816 5816 5817 5818 5819 5820 5820 5821 5821 5821 5822 5823 5823 5824 5825 5826 5827 5828 5829 5829 5829 5830 5830 5831 5831 5832 5833 5834 5835 5836 5836 5837 5838 5839 5840 5841 5842 5843 5844 5845 5845 5846 5846 5846 5846 5847 5848 5849 5850 5850 5851 5851 5850 5850 5850 5850 5850 5850
5809 5810 5810 5811 5812 5813 5813 5814 5815 5816 5817 5818 5818 5819 5819 5820 5820 5821 5822 5822 5823 5825 5826 5827 5827 5828 5828 5828 5828 5829 5829 5830 5831 5832 5833 5834 5834 5835 5836 5837 5838 5839 5841 5842 5843 5843 5844 5844 5844 5844 5845 5845 5846 5847 5848 5848 5848 5848 5849 5848 5848 5848 5848
5806 5806 5807 5808 5808 5809 5810 5811 5812 5813 5814 5815 5816 5816 5817 5818 5818 5818 5819 5820 5821 5822 5823 5824 5825 5825 5826 5826 5826 5827 5827 5827 5827 5829 5830 5831 5831 5832 5833 5834 5835 5836 5838 5839 5840 5841 5841 5842 5842 5842 5843 5843 5843 5845 5846 5846 5846 5846 5846 5846 5846 5846 5846
5803 5803 5804 5805 5805 5806 5807 5807 5808 5810 5811 5812 5813 5813 5814 5815 5816 5816 5816 5817 5818 5819 5820 5821 5822 5823 5823 5824 5824 5824 5824 5824 5824 5825 5826 5827 5828 5829 5830 5831 5832 5833 5835 5835 5837 5838 5838 5839 5839 5840 5840 5840 5841 5842 5843 5844 5844 5844 5844 5844 5844 5844 5844
5799 5800 5801 5801 5802 5803 5803 5804 5805 5806 5807 5808 5809 5810 5811 5812 5813 5813 5813 5814 5814 5815 5817 5817 5818 5819 5820 5821 5822 5822 5822 5822 5822 5823 5823 5824 5825 5826 5827 5828 5829 5830 5831 5832 5834 5835 5835 5836 5836 5837 5838 5838 5838 5839 5841 5842 5842 5842 5841 5842 5842 5842 5842
5795 5796 5797 5798 5799 5799 5800 5800 5801 5802 5803 5805 5806 5807 5808 5809 5809 5810 5811 5811 5811 5812 5813 5813 5814 5815 5816 5818 5818 5819 5819 5819 5819 5820 5820 5821 5822 5823 5824 5825 5825 5827 5828 5829 5830 5831 5832 5833 5834 5834 5835 5835 5836 5836 5838 5839 5840 5839 5839 5839 5839 5840 5840
5791 5792 5793 5794 5795 5795 5796 5797 5797 5798 5800 5801 5802 5803 5804 5805 5806 5807 5807 5808 5808 5808 5808 5809 5810 5811 5812 5813 5814 5815 5815 5816 5816 5816 5817 5818 5818 5819 5820 5821 5822 5824 5824 5825 5826 5828 5829 5830 5830 5831 5832 5832 5833 5834 5835 5836 5837 5837 5837 5837 5837 5837 5837
5786 5788 5789 5789 5790 5791 5792 5793 5794 5794 5795 5796 5798 5799 5800 5801 5802 5803 5803 5804 5804 5804 5805 5805 5806 5807 5808 5809 5810 5811 5811 5812 5813 5813 5814 5814 5815 5815 5816 5818 5819 5820 5821 5822 5823 5824 5825 5825 5826 5827 5828 5829 5830 5831 5832 5833 5834 5836 5835 5834 5834 5834 5834
5782 5784 5785 5785 5786 5787 5788 5789 5790 5790 5791 5792 5793 5794 5795 5796 5797 5798 5799 5800 5801 5801 5802 5802 5802 5803 5804 5805 5806 5807 5807 5808 5809 5810 5811 5811 5811 5811 5813 5814 5815 5816 5817 5818 5819 5820 5821 5821 5822 5823 5825 5826 5827 5828 5830 5831 5832 5833 5833 5832 5831 5832 5832
5778 5780 5781 5781 5781 5782 5783 5784 5785 5786 5787 5788 5789 5790 5790 5791 5792 5793 5794 5796 5796 5797 5798 5798 5798 5799 5800 5801 5802 5803 5803 5804 5806 5807 5808 5808 5808 5808 5809 5810 5812 5813 5813 5814 5815 5815 5816 5817 5818 5819 5821 5822 5823 5825 5828 5828 5829 5830 5830 5828 5828 5829 5829
5773 5775 5777 5777 5778 5778 5779 5779 5780 5781 5782 5784 5785 5786 5786 5787 5788 5789 5790 5791 5792 5792 5793 5794 5794 5794 5795 5796 5798 5798 5799 5800 5802 5803 5804 5804 5805 5805 5806 5807 5808 5809 5809 5809 5810 5811 5812 5813 5814 5815 5817 5818 5820 5823 5824 5825 5825 5826 5826 5827 5827 5827 5827
5769 5771 5772 5773 5774 5774 5775 5775 5776 5777 5778 5779 5780 5781 5782 5783 5784 5784 5785 5786 5787 5788 5789 5789 5790 5791 5792 5792 5793 5794 5794 5796 5798 5799 5799 5800 5801 5801 5802 5803 5804 5804 5804 5804 5805 5806 5807 5808 5809 5811 5813 5814 5817 5819 5820 5821 5822 5822 5823 5824 5824 5825 5825
5764 5766 5768 5769 5770 5770 5770 5771 5771 5772 5773 5774 5775 5776 5777 5778 5779 5779 5780 5781 5782 5783 5784 5785 5785 5786 5787 5788 5788 5789 5789 5790 5792 5794 5794 5796 5796 5796 5797 5798 5800 5800 5800 5800 5800 5801 5802 5804 5805 5807 5809 5810 5813 5815 5816 5817 5818 5819 5819 5820 5820 5822 5823
5760 5761 5763 5764 5765 5766 5766 5766 5766 5767 5768 5768 5769 5770 5771 5772 5773 5774 5775 5775 5776 5777 5778 5779 5780 5781 5782 5783 5783 5784 5784 5785 5787 5788 5790 5791 5791 5792 5793 5794 5795 5795 5796 5796 5797 5797 5799 5800 5801 5803 5804 5806 5808 5811 5813 5814 5815 5815 5815 5815 5817 5819 5819
5755 5756 5757 5759 5760 5761 5761 5761 5762 5762 5763 5763 5764 5765 5765 5766 5767 5768 5769 5770 5770 5771 5772 5773 5775 5776 5777 5778 5778 5779 5779 5780 5781 5783 5785 5785 5786 5787 5788 5790 5790 5791 5791 5793 5793 5794 5795 5796 5797 5799 5800 5802 5804 5807 5809 5810 5811 5811 5811 5812 5814 5815 5816
5749 5750 5752 5754 5755 5756 5756 5757 5757 5757 5758 5758 5759 5759 5760 5761 5762 5763 5764 5764 5765 5766 5766 5767 5769 5770 5771 5772 5773 5774 5775 5776 5777 5778 5780 5780 5781 5782 5783 5785 5786 5786 5787 5789 5790 5790 5791 5792 5793 5794 5795 5797 5799 5802 5803 5804 5806 5808 5809 5809 5811 5812 5813
5744 5745 5746 5748 5750 5751 5751 5751 5752 5752 5753 5753 5754 5755 5755 5756 5757 5758 5758 5759 5760 5760 5761 5762 5763 5764 5765 5767 5768 5769 5770 5771 5772 5773 5775 5776 5776 5777 5779 5780 5781 5781 5783 5784 5785 5785 5786 5788 5789 5790 5790 5792 5794 5796 5797 5799 5801 5804 5806 5806 5807 5809 5810
5740 5741 5742 5743 5744 5745 5746 5746 5747 5747 5748 5749 5749 5750 5750 5751 5751 5752 5753 5754 5754 5755 5755 5756 5757 5758 5760 5761 5762 5763 5764 5766 5767 5768 5769 5770 5771 5773 5774 5776 5777 5777 5778 5779 5780 5781 5782 5783 5784 5786 5786 5787 5789 5790 5792 5794 5796 5799 5801 5802 5803 5805 5806
5736 5737 5738 5738 5739 5740 5740 5741 5742 5743 5744 5744 5745 5745 5746 5746 5746 5747 5748 5748 5749 5749 5750 5751 5752 5753 5754 5755 5756 5757 5758 5760 5761 5763 5764 5765 5766 5767 5769 5771 5772 5773 5774 5775 5775 5777 5778 5779 5780 5781 5782 5783 5785 5786 5788 5789 5791 5793 5795 5797 5798 5800 5802
5732 5732 5733 5733 5733 5734 5735 5736 5737 5738 5739 5740 5740 5741 5741 5741 5741 5742 5743 5743 5744 5745 5745 5746 5747 5748 5749 5750 5751 5752 5753 5754 5755 5757 5758 5759 5760 5762 5763 5765 5767 5768 5769 5770 5771 5772 5773 5774 5776 5777 5778 5779 5780 5782 5784 5785 5787 5788 5790 5791 5792 5794 5795
5726 5727 5727 5727 5728 5728 5729 5731 5732 5733 5734 5735 5736 5736 5736 5736 5736 5737 5737 5738 5739 5740 5740 5741 5742 5743 5744 5744 5745 5746 5747 5748 5749 5751 5752 5753 5755 5756 5758 5759 5761 5762 5764 5765 5766 5767 5768 5770 5771 5773 5774 5775 5776 5778 5780 5781 5782 5784 5785 5786 5787 5788 5789
5721 5721 5722 5722 5723 5724 5725 5726 5727 5728 5729 5730 5731 5731 5731 5731 5731 5731 5731 5731 5733 5734 5735 5736 5737 5738 5739 5739 5740 5741 5741 5742 5743 5745 5746 5748 5749 5750 5752 5753 5755 5757 5758 5760 5761 5762 5764 5765 5766 5768 5769 5770 5772 5774 5775 5776 5778 5779 5780 5781 5781 5782 5784
5717 5717 5717 5718 5719 5720 5720 5721 5722 5722 5723 5724 5725 5725 5725 5725 5725 5724 5725 5725 5727 5728 5729 5730 5731 5732 5733 5734 5735 5735 5736 5736 5737 5738 5740 5742 5743 5745 5746 5747 5749 5751 5753 5755 5756 5757 5758 5760 5761 5763 5765 5766 5767 5768 5770 5772 5773 5774 5775 5775 5776 5777 5779
5713 5713 5713 5714 5715 5715 5716 5716 5717 5717 5717 5717 5718 5718 5718 5718 5718 5718 5719 5719 5720 5722 5723 5724 5724 5725 5727 5728 5729 5730 5730 5731 5732 5733 5734 5735 5737 5739 5740 5742 5744 5746 5747 5749 5750 5752 5753 5755 5756 5758 5759 5761 5762 5764 5765 5767 5768 5769 5770 5770 5771 5773 5774
5709 5709 5709 5710 5710 5710 5710 5710 5711 5711 5711 5711 5711 5711 5711 5711 5712 5712 5713 5713 5715 5716 5717 5717 5718 5719 5720 5721 5723 5724 5725 5725 5726 5727 5728 5729 5731 5733 5734 5736 5738 5740 5741 5743 5744 5746 5748 5749 5751 5753 5754 5755 5757 5759 5761 5761 5762 5764 5766 5766 5766 5768 5769
5704 5704 5704 5704 5704 5704 5704 5704 5704 5705 5705 5705 5705 5704 5704 5704 5705 5706 5706 5707 5708 5710 5710 5711 5712 5713 5713 5715 5716 5717 5719 5720 5721 5722 5723 5724 5725 5727 5728 5730 5732 5734 5735 5737 5739 5740 5742 5744 5745 5747 5749 5750 5752 5754 5755 5756 5757 5759 5760 5760 5761 5763 5763
5699 5699 5699 5699 5698 5698 5698 5698 5698 5698 5698 5698 5698 5697 5697 5697 5699 5699 5700 5701 5702 5703 5704 5704 5705 5706 5707 5708 5709 5711 5712 5713 5715 5716 5717 5718 5719 5721 5723 5724 5726 5728 5729 5731 5733 5735 5737 5738 5740 5742 5743 5745 5747 5749 5750 5751 5752 5753 5754 5754 5756 5757 5758
5695 5695 5694 5694 5693 5693 5693 5693 5692 5692 5692 5691 5691 5690 5690 5690 5692 5693 5693 5694 5695 5696 5697 5698 5698 5699 5701 5702 5703 5704 5705 5707 5708 5710 5711 5712 5713 5715 5717 5719 5720 5722 5724 5726 5727 5729 5731 5733 5735 5736 5738 5739 5741 5743 5745 5746 5747 5748 5749 5749 5751 5752 5753
5691 5691 5690 5690 5689 5689 5688 5687 5686 5686 5685 5685 5684 5684 5684 5684 5685 5685 5686 5687 5688 5688 5689 5690 5691 5692 5693 5695 5696 5697 5699 5700 5702 5703 5705 5706 5708 5710 5712 5713 5715 5717 5719 5720 5722 5723 5726 5728 5729 5730 5732 5734 5736 5738 5740 5741 5742 5743 5744 5745 5746 5747 5749
5688 5687 5686 5685 5685 5684 5683 5682 5681 5680 5680 5679 5678 5678 5678 5678 5678 5679 5679 5680 5681 5682 5682 5683 5684 5685 5687 5688 5689 5690 5692 5693 5695 5696 5698 5700 5702 5704 5706 5707 5709 5711 5713 5715 5716 5717 5719 5722 5724 5725 5726 5729 5731 5733 5735 5736 5737 5738 5739 5741 5742 5743 5743
5684 5683 5682 5681 5680 5679 5679 5677 5676 5675 5674 5673 5673 5673 5673 5673 5672 5673 5673 5674 5675 5676 5676 5677 5678 5679 5680 5682 5683 5684 5685 5687 5688 5690 5692 5693 5695 5698 5700 5702 5703 5705 5707 5709 5710 5711 5713 5716 5718 5720 5722 5725 5728 5729 5730 5731 5732 5734 5735 5736 5737 5737 5738
5680 5679 5678 5677 5677 5676 5675 5673 5671 5670 5669 5668 5668 5668 5667 5667 5667 5667 5667 5668 5669 5670 5671 5671 5672 5673 5675 5676 5677 5678 5679 5680 5682 5683 5685 5687 5689 5691 5693 5695 5697 5699 5701 5703 5704 5705 5707 5710 5712 5715 5718 5722 5724 5724 5724 5726 5728 5729 5729 5730 5732 5732 5734
5675 5675 5674 5673 5673 5672 5671 5669 5667 5665 5664 5663 5663 5663 5662 5662 5661 5661 5662 5662 5663 5664 5665 5666 5667 5668 5669 5670 5671 5672 5673 5674 5675 5677 5678 5680 5682 5684 5686 5688 5691 5693 5695 5696 5698 5699 5701 5704 5706 5709 5712 5715 5717 5718 5718 5720 5722 5723 5724 5725 5727 5728 5729
5671 5670 5669 5669 5668 5668 5666 5664 5662 5661 5659 5659 5658 5658 5657 5657 5657 5657 5657 5658 5659 5659 5660 5661 5661 5662 5663 5664 5665 5665 5666 5668 5669 5670 5671 5673 5675 5677 5679 5681 5683 5686 5688 5690 5691 5692 5695 5698 5700 5703 5705 5707 5709 5711 5712 5714 5717 5719 5719 5720 5722 5723 5724
5666 5666 5665 5665 5664 5663 5662 5660 5658 5656 5655 5655 5654 5653 5653 5653 5652 5652 5652 5652 5653 5654 5654 5655 5656 5657 5657 5658 5659 5660 5661 5662 5663 5663 5665 5667 5668 5670 5672 5674 5676 5678 5680 5682 5684 5686 5689 5692 5694 5697 5699 5700 5702 5705 5707 5709 5712 5714 5715 5716 5718 5719 5720
Wind_Speed
20 19 18 18 18 18 17 18 17 17 17 17 17 17 16 16 15 15 14 13 14 14 16 16 15 14 15 18 19 20 19 19 19 21 22 21 21 21 21 21 21 20 20 20 20 20 21 21 20 21 21 21 22 22 23 22 23 23 24 25 24 24 24
22 21 21 20 19 20 20 20 19 19 19 19 19 19 18 17 17 17 16 15 15 15 16 17 16 15 16 17 20 22 23 22 21 20 21 24 25 24 22 21 22 22 22 21 21 21 21 20 20 19 19 19 19 20 20 20 21 22 22 22 22 22 22
24 24 23 23 22 22 22 22 21 22 22 22 21 21 21 20 19 19 19 18 17 17 18 18 17 17 18 18 20 22 24 25 25 23 22 23 25 26 25 24 24 24 23 23 22 22 22 21 21 20 19 18 18 18 19 19 20 20 20 19 19 19 19
26 25 25 25 24 24 24 24 24 24 24 24 23 23 23 22 22 21 21 21 20 19 20 20 20 19 19 19 20 21 23 26 28 28 26 24 23 24 26 27 26 26 25 25 24 24 24 22 22 22 20 18 18 18 19 19 20 19 18 18 18 18 18
27 27 26 26 26 25 25 26 26 26 26 26 26 25 25 25 24 24 24 23 23 22 22 22 22 22 21 21 21 21 23 25 27 30 30 28 25 23 24 26 28 27 26 26 25 26 26 24 23 23 21 19 18 18 19 19 19 18 18 18 18 17 16
28 28 27 27 27 26 26 26 27 27 28 28 28 28 27 27 26 26 26 26 25 25 24 24 24 24 24 23 22 22 23 23 25 28 31 31 28 24 23 24 26 27 27 26 25 26 27 26 25 24 22 20 18 18 19 19 18 18 17 17 17 17 17
29 29 28 27 27 27 27 27 27 28 28 28 29 30 29 29 29 28 29 29 28 28 27 26 26 26 25 24 24 23 24 23 23 25 29 31 30 27 25 24 25 26 28 28 26 26 27 28 27 26 24 23 20 18 18 19 19 18 17 17 17 17 18
30 30 29 29 28 28 28 28 28 28 28 29 29 30 31 31 31 31 30 30 31 30 30 29 29 28 27 26 25 25 25 24 23 23 26 28 29 29 28 27 27 27 28 29 29 27 28 29 30 28 26 24 22 20 19 19 19 19 18 17 17 17 18
31 31 31 30 29 28 28 28 28 28 28 28 29 30 31 31 32 32 32 32 32 32 32 32 31 30 29 28 27 26 26 26 24 23 24 26 27 29 29 29 29 29 29 30 30 29 29 30 31 30 28 26 24 22 20 20 20 20 18 18 17 17 18
31 31 31 30 29 29 28 28 28 28 28 28 28 29 30 31 31 32 33 33 34 34 33 33 33 32 30 30 28 28 28 27 26 25 24 24 26 28 29 29 30 30 31 31 30 30 30 31 32 32 30 27 26 24 22 21 21 20 19 19 18 18 18
31 31 31 30 29 29 28 27 27 28 28 29 29 29 29 30 31 32 33 33 34 34 33 33 34 33 33 31 29 28 29 29 27 27 26 25 26 27 27 28 29 31 32 33 33 32 31 31 33 33 31 29 27 26 24 23 21 20 20 21 19 18 19
32 31 30 30 29 28 27 26 27 27 28 29 29 29 29 29 30 31 32 33 34 34 34 33 34 34 34 33 32 31 31 30 28 28 28 27 27 26 26 26 28 29 31 33 35 35 34 32 33 34 33 32 30 28 26 25 24 22 23 23 21 20 20
32 31 31 31 30 28 27 27 27 28 28 29 29 29 29 29 30 30 31 32 33 34 34 34 35 35 35 34 34 33 33 31 29 29 29 29 29 28 27 26 27 28 30 32 35 37 37 35 35 36 36 34 32 29 28 28 27 25 26 26 23 21 20
33 32 32 32 32 30 29 28 29 29 29 29 30 30 31 31 31 31 31 32 32 34 34 35 35 35 34 34 34 34 34 33 31 30 31 30 30 29 28 28 28 29 30 31 33 36 38 37 36 37 38 37 33 30 30 31 29 28 27 27 26 23 21
35 33 33 34 34 33 31 30 30 30 30 31 31 32 32 33 33 32 32 32 32 33 34 35 35 35 34 33 34 34 35 34 33 32 32 31 31 31 30 29 29 30 31 30 31 34 36 36 36 37 39 39 35 32 32 32 32 30 29 29 28 25 24
37 36 36 37 36 35 33 32 32 31 31 31 31 32 33 33 34 34 34 34 34 34 35 36 36 36 35 35 35 35 36 36 35 33 33 32 32 32 31 30 30 30 30 29 28 31 33 34 35 36 39 39 36 33 33 33 33 33 32 31 29 27 27
36 37 37 37 36 35 33 32 31 30 30 30 30 31 32 32 33 34 34 34 34 35 36 37 37 37 37 37 37 37 37 38 37 35 33 33 33 32 31 29 29 30 29 26 26 29 32 32 32 34 37 39 36 33 34 35 36 36 36 34 32 30 29
35 37 38 37 34 32 31 30 29 28 29 29 30 30 31 31 32 33 34 34 35 35 36 37 38 38 38 38 39 39 39 39 38 37 35 35 34 33 31 30 30 30 28 24 24 28 32 32 32 34 36 39 37 35 35 37 38 38 37 37 35 32 30
35 37 37 36 33 31 30 29 28 28 29 29 30 30 31 31 32 32 33 34 35 35 36 37 38 39 39 39 40 40 40 39 39 38 37 36 36 35 33 31 31 31 29 25 24 28 32 34 34 35 37 38 38 37 37 39 39 38 38 38 37 34 32
36 36 36 35 33 31 31 30 29 29 30 30 31 31 32 32 32 32 33 33 34 35 36 37 38 39 39 39 40 40 40 39 40 39 38 38 37 37 35 34 33 33 32 29 28 29 32 35 34 35 37 39 38 38 38 39 39 39 39 39 38 36 34
36 36 35 35 34 33 32 31 30 31 31 31 32 33 33 33 33 33 32 32 33 34 35 36 37 38 39 39 40 40 40 39 39 40 39 39 39 38 37 36 35 34 33 32 31 30 32 35 35 35 37 39 38 37 37 37 38 39 40 41 40 38 37
35 35 35 34 34 34 33 32 31 31 32 33 33 33 34 34 34 34 34 34 34 34 34 35 36 37 38 40 40 40 40 40 39 39 39 39 39 38 38 37 36 35 34 34 33 33 32 34 35 36 36 37 38 37 36 36 36 37 39 40 40 40 40
32 32 32 32 32 32 31 31 31 32 33 34 34 34 35 36 36 37 37 37 36 35 35 35 35 35 37 38 40 40 41 41 40 40 40 39 39 38 38 38 37 37 36 35 35 35 35 34 34 35 36 37 37 37 36 36 35 35 36 38 40 41 41
29 30 30 31 31 30 31 31 32 32 34 35 36 37 38 38 39 39 40 39 38 37 37 37 36 36 36 37 38 39 40 41 42 42 41 40 39 39 39 39 38 38 37 36 35 36 36 36 35 35 35 36 37 38 38 38 36 35 34 35 38 40 40
28 29 30 31 31 31 32 33 34 35 36 37 38 39 40 41 41 41 41 41 40 38 38 39 38 38 38 37 38 38 39 40 42 43 43 42 40 40 40 40 39 39 38 37 38 38 37 37 36 36 36 36 37 38 39 39 38 37 36 36 38 39 39
28 30 31 32 32 33 34 35 36 38 39 40 41 41 42 42 41 41 40 41 40 39 38 39 39 40 41 40 40 39 39 40 41 42 43 43 42 41 41 41 40 39 39 39 40 40 39 38 37 36 36 36 38 39 39 39 40 40 39 39 40 39 38
31 33 34 35 35 36 37 38 39 39 40 41 42 43 43 42 41 41 40 41 41 40 39 40 40 40 41 41 42 42 41 41 40 41 42 43 43 41 41 41 40 40 41 41 41 41 41 40 39 38 37 37 38 38 39 40 40 39 39 42 42 40 39
33 33 34 35 36 37 38 39 39 39 40 41 42 43 44 44 43 42 42 42 41 41 41 41 41 40 40 40 42 43 44 43 42 41 41 42 43 42 42 41 41 40 41 42 41 41 41 41 40 40 39 39 38 37 39 41 40 38 39 43 43 41 41
31 32 33 34 35 36 36 37 37 36 37 38 40 41 43 44 44 43 44 44 43 42 41 41 41 41 40 40 40 41 43 45 44 43 42 42 43 43 42 42 41 41 41 42 42 42 41 41 40 41 42 42 40 38 38 40 40 40 42 45 45 43 43
27 27 28 30 31 31 32 32 33 33 35 36 37 39 40 41 41 41 42 43 43 43 42 41 41 41 41 41 40 40 41 43 46 46 44 44 43 43 43 43 42 41 42 42 42 42 41 40 40 42 43 43 42 40 39 39 40 41 42 44 44 43 43
22 23 25 26 27 27 28 29 30 32 33 35 36 37 37 37 37 38 39 40 42 42 42 42 42 42 41 41 40 40 40 41 44 46 47 46 45 44 44 43 43 42 42 42 43 43 42 41 41 42 43 43 41 39 38 39 39 39 41 42 41 43 45
21 22 24 24 25 26 27 28 29 30 32 33 34 35 34 34 34 35 36 37 38 39 40 40 40 40 40 40 40 40 40 40 41 44 47 48 47 46 44 44 43 41 40 40 41 42 42 41 40 41 42 41 39 37 37 38 39 38 39 38 39 43 47
22 23 24 24 25 26 27 29 30 30 31 32 33 33 32 32 32 33 33 33 34 35 36 37 37 38 38 39 39 39 40 40 40 41 44 47 49 48 46 45 43 42 39 38 38 39 41 41 40 40 39 36 33 34 37 38 36 36 36 36 37 42 44
24 24 25 25 26 26 27 29 31 31 31 31 31 31 31 32 32 33 33 33 33 33 34 35 36 36 37 38 39 39 40 40 40 41 42 44 47 49 49 48 46 44 42 39 38 38 39 40 40 38 36 31 29 31 35 36 34 33 35 35 34 36 35
25 25 26 26 27 26 27 29 30 31 30 30 29 29 29 30 31 32 33 33 33 33 34 34 35 35 36 37 38 39 40 40 40 41 42 43 45 48 51 51 50 48 46 43 41 39 38 39 40 38 37 36 35 34 35 36 35 33 33 32 32 33 34
26 27 27 28 27 26 27 29 30 30 29 29 28 28 28 29 30 31 32 32 32 33 33 34 34 35 36 37 38 39 39 39 40 41 42 43 44 46 49 52 53 52 49 47 45 42 39 39 41 42 40 41 41 39 38 37 35 33 34 34 33 33 34
28 28 28 28 27 26 27 29 30 30 29 28 28 28 28 29 30 31 32 33 33 33 33 34 34 35 36 36 37 38 38 39 40 40 41 42 44 45 47 49 52 52 51 49 48 45 41 40 43 45 44 43 43 41 40 38 35 32 33 36 35 32 31
Wind_Direction
240 241 239 236 236 238 241 244 247 250 253 256 258 259 260 261 264 266 265 264 264 265 266 264 259 250 244 246 249 248 245 245 245 242 240 241 240 237 237 241 242 242 241 238 235 237 238 235 232 231 233 236 239 241 244 245 246 247 250 254 257 260 263
238 241 241 240 238 238 240 242 245 248 251 254 256 259 260 260 262 265 265 264 262 261 263 263 260 253 249 250 251 251 247 245 245 245 242 240 241 241 241 243 243 241 240 237 235 237 239 239 236 233 233 235 237 239 242 244 245 245 248 253 259 262 264
239 240 241 241 239 239 240 241 242 245 248 250 252 256 259 261 260 261 262 263 261 259 259 260 259 255 253 253 253 253 251 247 245 244 243 241 242 244 245 244 242 239 238 238 238 239 239 240 240 237 233 235 237 239 241 243 244 245 246 252 258 262 263
242 242 242 242 241 240 239 240 240 242 245 248 250 252 255 258 260 260 260 261 261 259 258 258 257 256 255 255 256 256 254 250 247 244 243 242 242 243 243 243 242 239 239 240 241 242 241 240 241 241 236 234 238 241 243 243 243 246 248 252 256 260 262
246 245 245 245 245 243 241 240 240 240 242 245 248 249 251 253 257 259 259 259 259 259 258 258 257 256 255 255 257 258 257 254 249 245 243 242 240 239 239 241 242 241 240 242 242 242 243 241 240 242 240 236 238 242 245 245 245 246 248 251 254 256 257
250 248 247 247 247 247 245 243 242 241 241 242 245 247 248 250 252 255 257 257 257 257 257 257 257 256 256 255 255 256 257 257 252 246 244 242 241 239 238 239 240 240 239 240 240 240 241 240 241 242 242 240 240 243 247 248 249 249 249 250 253 254 255
255 253 251 250 249 249 249 247 245 244 243 243 244 245 247 248 249 251 253 255 256 255 255 254 254 255 255 256 255 255 255 255 252 247 245 244 242 241 240 238 237 237 237 237 237 239 239 239 241 242 243 244 243 245 250 252 253 253 252 253 254 255 255
262 258 255 253 252 252 252 251 250 248 246 245 244 245 246 246 248 249 250 253 255 255 254 253 253 252 251 253 254 254 253 253 251 248 246 245 244 243 242 240 238 237 237 237 237 238 238 238 240 241 243 246 246 245 248 253 256 256 255 255 255 256 256
265 262 259 256 254 253 253 254 255 255 253 250 247 247 247 246 247 248 249 250 253 254 254 253 254 253 251 250 251 252 253 252 251 249 248 247 247 246 245 244 242 240 238 237 237 238 238 237 238 240 241 243 246 246 247 251 255 257 257 256 255 255 255
264 262 260 257 255 253 252 253 255 257 257 256 253 250 249 248 247 247 248 248 250 252 254 254 254 254 254 252 250 250 251 251 250 249 249 248 249 249 247 246 245 243 240 238 238 239 239 237 238 239 239 240 243 246 246 249 254 257 258 257 254 253 252
262 260 258 255 254 253 252 252 253 255 256 257 257 255 253 251 249 248 248 248 249 251 253 254 254 255 255 255 253 252 252 251 250 249 248 248 249 250 250 248 246 245 243 240 239 240 241 240 238 237 237 238 240 243 246 249 253 256 257 255 252 250 251
260 258 257 255 253 253 253 253 253 253 253 254 256 256 255 254 253 251 250 249 249 250 251 253 255 255 255 255 255 254 254 254 253 251 249 248 248 250 252 251 248 247 246 243 240 241 243 242 239 236 235 236 237 241 245 248 250 251 251 250 246 244 246
259 260 259 257 255 254 255 255 255 255 255 255 255 256 256 256 255 254 253 251 250 250 250 251 253 254 254 254 254 254 254 255 254 253 251 250 250 250 251 251 248 248 250 248 244 242 242 241 239 237 236 235 235 238 243 247 249 251 252 251 247 242 242
260 262 263 262 260 258 257 257 258 258 258 259 259 259 258 258 257 256 255 253 251 251 250 250 251 252 252 253 253 253 254 253 252 252 252 251 251 251 250 250 249 249 252 254 249 242 240 240 239 238 239 237 234 234 240 245 247 251 255 256 252 245 244
259 262 264 265 264 262 261 260 260 260 261 261 261 261 261 261 260 258 256 254 252 251 250 249 249 250 251 251 251 252 252 252 251 250 251 251 251 251 250 250 251 251 252 256 252 241 237 238 239 239 240 239 235 233 237 243 247 250 253 256 254 249 248
257 261 263 263 263 263 261 261 261 261 261 260 260 260 260 260 260 259 256 253 250 248 248 248 248 248 248 248 249 249 250 251 251 249 250 251 251 251 251 250 251 251 252 255 252 242 236 238 239 239 239 238 236 234 236 241 245 247 249 252 253 250 249
257 258 258 259 260 260 260 259 260 260 259 259 259 258 258 258 258 257 256 253 250 247 246 246 246 246 246 246 246 246 247 249 250 249 248 248 249 250 250 250 250 250 251 254 252 244 239 240 241 240 239 237 236 235 236 239 241 243 246 248 250 250 251
258 258 257 257 257 258 258 257 257 257 257 258 258 258 258 257 257 256 255 253 251 248 245 244 244 244 244 245 245 245 245 247 249 249 248 247 247 247 248 248 248 248 249 252 251 245 242 243 243 241 237 234 234 234 237 239 241 242 245 247 249 250 252
257 258 259 259 258 257 256 255 255 255 256 258 259 259 259 258 258 257 255 254 251 249 246 244 243 243 243 244 244 245 245 246 247 249 249 248 248 247 246 246 246 247 247 249 249 246 243 242 243 241 236 232 231 233 236 239 242 243 245 248 250 251 253
254 256 257 258 258 257 256 256 256 257 258 258 258 258 258 257 257 257 257 256 253 250 247 245 243 243 243 243 244 245 245 245 246 247 247 247 247 247 246 245 245 245 245 245 246 245 243 241 241 240 236 232 232 235 237 240 242 243 245 247 249 251 252
250 251 252 254 256 257 257 257 257 257 258 257 256 256 255 255 255 255 256 257 256 253 249 246 244 243 243 243 243 244 244 244 244 246 246 246 245 246 245 244 244 244 244 243 244 245 244 241 240 240 238 235 235 237 240 242 244 244 245 246 248 249 248
250 250 250 252 254 255 255 254 254 255 255 254 254 255 255 255 255 255 255 256 256 256 253 250 247 245 244 243 244 244 244 243 243 244 245 246 245 245 245 244 244 244 243 243 242 243 244 243 242 243 241 238 236 237 240 243 245 245 246 247 247 249 248
253 253 253 254 255 255 255 254 253 253 253 253 254 256 258 258 258 258 258 257 256 256 255 254 251 248 246 244 245 245 245 244 242 242 243 244 244 244 244 244 244 244 243 242 242 242 243 244 244 244 244 241 238 238 240 243 245 247 249 248 246 248 249
252 254 255 256 256 256 256 256 255 255 255 256 257 259 261 262 262 262 261 260 258 256 255 254 253 251 249 247 246 246 246 245 244 242 241 242 242 242 243 243 243 243 243 242 242 242 243 243 243 244 244 242 241 242 243 244 245 248 250 248 246 248 250
252 253 255 256 256 257 257 258 259 260 261 262 263 264 265 265 265 265 263 262 260 258 256 254 252 250 249 248 247 247 247 247 246 244 242 241 240 240 241 242 242 242 242 241 241 241 242 242 243 244 245 244 243 244 245 245 246 247 248 248 247 249 250
255 257 258 260 261 261 262 262 263 264 265 266 267 267 266 266 266 264 263 261 260 258 256 255 253 251 249 247 246 246 247 248 247 245 243 241 240 239 240 241 241 241 241 241 240 240 241 241 242 243 244 244 243 243 245 246 246 247 249 249 249 250 251
257 259 261 263 263 264 264 264 265 265 266 266 266 266 265 264 263 262 260 260 259 257 255 254 254 253 251 248 245 245 245 247 248 247 244 242 240 240 239 239 239 240 240 241 241 241 241 241 241 242 243 244 244 243 244 246 247 250 252 252 252 252 253
258 260 262 264 265 265 265 265 265 266 266 267 267 266 264 262 260 259 258 258 258 256 255 254 253 252 251 250 247 244 243 244 246 247 245 242 240 240 240 240 239 239 239 240 241 242 242 241 241 241 242 244 245 245 245 247 248 249 249 249 251 254 255
263 265 266 267 267 267 267 267 268 268 270 270 270 269 266 264 261 259 257 257 256 255 254 253 252 251 250 250 249 247 244 242 243 245 245 244 241 240 240 240 240 239 239 240 240 241 242 241 240 240 240 242 244 245 247 248 247 245 243 245 250 255 258
267 268 269 268 269 270 271 272 273 273 274 274 273 270 269 267 264 261 257 255 254 253 252 251 251 251 250 249 249 248 246 243 241 242 243 244 243 241 240 241 241 240 239 240 241 241 241 240 240 239 240 241 243 244 246 247 248 248 246 245 248 252 255
268 269 270 272 275 278 279 279 278 277 276 275 272 270 268 267 265 261 257 254 252 251 250 249 249 249 249 248 247 246 246 245 243 241 241 242 243 242 241 241 242 241 239 239 240 241 240 239 238 239 240 241 243 244 245 246 248 249 246 244 248 252 254
271 273 276 280 284 286 287 286 283 280 278 276 272 269 267 266 264 261 258 255 252 250 249 248 247 247 247 246 246 246 245 245 244 242 240 240 241 242 242 241 241 241 239 238 239 240 239 238 237 237 239 241 244 246 246 245 245 246 245 247 253 257 255
274 276 279 283 286 289 291 291 288 284 281 277 274 270 267 265 263 260 258 256 253 252 250 248 247 247 247 246 246 246 246 246 245 243 241 240 240 240 242 241 240 239 238 239 240 241 239 237 235 235 237 241 246 248 245 242 242 244 249 253 256 255 252
275 276 279 281 283 286 290 291 290 288 284 280 276 272 268 265 262 260 258 256 254 252 250 249 248 247 247 247 247 247 247 246 245 244 243 241 239 239 240 240 240 240 240 241 242 242 240 235 232 232 230 229 233 237 237 237 239 245 251 252 248 245 243
276 277 278 280 281 284 288 291 291 289 285 281 277 272 268 265 262 260 258 256 254 253 252 251 249 248 248 248 248 248 248 247 246 245 244 242 241 239 239 239 240 241 242 242 242 242 240 234 229 226 224 222 225 230 236 239 242 246 247 242 235 232 230
276 276 277 279 280 283 287 291 292 289 284 279 275 271 268 266 264 263 261 259 257 256 254 253 251 250 249 248 248 249 248 248 247 246 244 243 242 241 240 239 239 240 242 242 241 241 240 235 227 222 222 224 227 231 236 239 242 243 241 237 235 233 230
275 276 276 278 280 283 286 290 292 289 284 278 274 272 271 270 268 267 266 264 260 257 256 255 253 251 250 250 250 250 250 250 249 248 246 243 242 241 241 239 239 240 241 241 241 239 239 237 230 223 222 226 229 230 231 234 237 240 240 240 238 237 237